Content
SEND FEEDBACK

Daily
Averages
Monthly
Summary
United Kingdom

CARDIFF, WALES


Home > Europe > United Kingdom > Wales
Elevation: 220 feet     Latitude: 51 24N     Longitude: 003 21W

WEATHER
 
SELECT A DAY
Number of Records: 274,389;   Date Range: 7/1/96 - 7/9/14
 
SHARE

PRINT THIS DATA

[ ← Previous Day ]
WEATHER ALMANAC - AUGUST 1, 2013
[ Next Day → ]
[ °C ]   °F
Weather ElementAverageHighLow
Temperature68.2 °F80.6 °F (2:50 pm)62.6 °F (2:20 am)
Dewpoint62.1 °F66.2 °F (12:20 pm)59 °F (4:20 am)
Humidity81.5 %94 % (2:20 am)61 % (2:50 pm)
Barometer29.76 in29.89 in (12:50 am)29.68 in (2:50 pm)
Wind Speed8.4 mph13.8 mph (7:50 pm)
Weather ElementAverage
Visibility6.2 mi
Wind DirectionS (180.9 °)

Weather ElementTotal
Precipitation---
Cooling Degree Days6.6 (Base 65)
Growing Degree Days21.6 (Base 50)
Averaged from 47 records on August 1, 2013
WEATHER CONDITIONS BREAKOUT
WIND DIRECTION BREAKOUT
WEATHER BY HOUR - AUGUST 1, 2013
[ °C ]   °F
Local TimeTemperatureDewpointHumidityBarometerVisibilityWind DirectionWind SpeedGust SpeedPrecipitationEventsConditions
12:50 AM64.4 °F60.8 °F88 %29.89 in6.2 miSouth (170°)9.2 mphMostly Cloudy
1:20 AM64.4 °F60.8 °F88 %29.89 in6.2 miSSE (160°)8.1 mphScattered Clouds
1:50 AM64.4 °F60.8 °F88 %29.89 in6.2 miSSE (160°)8.1 mphMostly Cloudy
2:20 AM62.6 °F60.8 °F94 %29.89 in6.2 miSouth (170°)8.1 mphPartly Cloudy
2:50 AM62.6 °F60.8 °F94 %29.86 in6.2 miSSE (160°)9.2 mphPartly Cloudy
3:20 AM62.6 °F60.8 °F94 %29.86 in6.2 miSouth (170°)8.1 mphPartly Cloudy
3:50 AM62.6 °F60.8 °F94 %29.86 inSouth (170°)9.2 mphClear
4:20 AM62.6 °F59.0 °F88 %29.86 in6.2 miSouth (170°)8.1 mphPartly Cloudy
4:50 AM62.6 °F60.8 °F94 %29.83 in6.2 miSSE (160°)6.9 mphMostly Cloudy
5:20 AM62.6 °F59.0 °F88 %29.83 in6.2 miSE (140°)4.6 mphScattered Clouds
5:50 AM62.6 °F60.8 °F94 %29.83 in6.2 miSE (130°)6.9 mphScattered Clouds
6:20 AM62.6 °F60.8 °F94 %29.83 in6.2 miESE (120°)6.9 mphMostly Cloudy
6:50 AM62.6 °F60.8 °F94 %29.80 in6.2 miSE (130°)6.9 mphMostly Cloudy
7:20 AM62.6 °F60.8 °F94 %29.80 in6.2 miESE (120°)5.8 mphMostly Cloudy
7:50 AM64.4 °F60.8 °F88 %29.80 in6.2 miEast (90°)5.8 mphMostly Cloudy
8:20 AM64.4 °F62.6 °F94 %29.80 in6.2 miEast (100°)8.1 mphMostly Cloudy
8:50 AM66.2 °F62.6 °F88 %29.80 in6.2 miEast (100°)8.1 mphMostly Cloudy
9:20 AM68.0 °F62.6 °F83 %29.77 in6.2 miEast (100°)10.4 mphScattered Clouds
9:50 AM68.0 °F62.6 °F83 %29.77 in6.2 miESE (110°)11.5 mphPartly Cloudy
10:20 AM69.8 °F64.4 °F83 %29.77 in6.2 miEast (100°)10.4 mphPartly Cloudy
10:50 AM69.8 °F64.4 °F83 %29.74 in6.2 miEast (100°)9.2 mphPartly Cloudy
11:20 AM71.6 °F64.4 °F78 %29.74 in6.2 miESE (110°)8.1 mphPartly Cloudy
11:50 AM73.4 °F64.4 °F73 %29.74 in6.2 miEast (100°)5.8 mphPartly Cloudy
12:20 PM75.2 °F66.2 °F73 %29.74 in6.2 miSE (130°)8.1 mphPartly Cloudy
12:50 PM77.0 °F66.2 °F69 %29.71 in6.2 miESE (120°)5.8 mphPartly Cloudy
1:20 PM78.8 °F66.2 °F65 %29.71 in6.2 miSE (130°)6.9 mphPartly Cloudy
1:50 PM78.8 °F66.2 °F65 %29.71 in6.2 miSE (130°)8.1 mphPartly Cloudy
2:20 PM78.8 °F66.2 °F65 %29.71 in6.2 miESE (120°)6.9 mphPartly Cloudy
2:50 PM80.6 °F66.2 °F61 %29.68 in6.2 miSE (130°)5.8 mphPartly Cloudy
3:20 PM75.2 °F66.2 °F73 %29.68 in6.2 miWSW (240°)8.1 mphPartly Cloudy
3:50 PM77.0 °F66.2 °F69 %29.68 in6.2 miWest (260°)6.9 mphPartly Cloudy
4:20 PM75.2 °F64.4 °F69 %29.68 in6.2 miWest (270°)10.4 mphPartly Cloudy
4:50 PM73.4 °F62.6 °F69 %29.68 in6.2 miWNW (290°)11.5 mphPartly Cloudy
5:20 PM73.4 °F62.6 °F69 %29.68 in6.2 miWNW (290°)9.2 mphPartly Cloudy
5:50 PM73.4 °F62.6 °F69 %29.68 in6.2 miWNW (300°)9.2 mphPartly Cloudy
6:20 PM73.4 °F62.6 °F69 %29.68 in6.2 miWNW (290°)10.4 mphPartly Cloudy
6:50 PM69.8 °F60.8 °F73 %29.68 inWNW (290°)12.7 mphClear
7:20 PM69.8 °F60.8 °F73 %29.68 inWNW (290°)11.5 mphClear
7:50 PM68.0 °F60.8 °F78 %29.68 inWNW (290°)13.8 mphClear
8:20 PM66.2 °F60.8 °F83 %29.68 inWNW (300°)11.5 mphClear
8:50 PM64.4 °F60.8 °F88 %29.71 inWNW (300°)11.5 mphClear
9:20 PM64.4 °F59.0 °F83 %29.71 inWNW (300°)10.4 mphClear
9:50 PM62.6 °F59.0 °F88 %29.71 inWNW (290°)9.2 mphClear
10:20 PM62.6 °F59.0 °F88 %29.74 in6.2 miWest (280°)5.8 mphScattered Clouds
10:50 PM62.6 °F59.0 °F88 %29.74 in6.2 miVariable3.5 mphScattered Clouds
11:20 PM64.4 °F59.0 °F83 %29.74 in6.2 miSSW (210°)8.1 mphMostly Cloudy
11:50 PM64.4 °F59.0 °F83 %29.74 in6.2 miSSW (210°)8.1 mphPartly Cloudy
Hourly data recorded from EGFF, located miles away from Cardiff, Wales







STORIES FROM OUR PARTNERS